Location: Arbon
(43.0005°N, 0.7472°E)
Time: 22:53:09
(UTC+00:00)

Altair - Pass Details

Date: 05 December 2020
Orbit: 1501 x 1682 km, 47.2° (Epoch: 26 January)

Event Time Altitude Azimuth Distance (km) Brightness Sun altitude
Rises 17:39:34 0° 216° (SW) 4,801 11.0 -13.7°
Reaches altitude 10° 17:42:50 10° 211° (SSW) 3,792 10.3 -14.2°
Maximum altitude 17:51:53 49° 140° (SE) 1,930 7.8 -15.8°
Enters shadow 17:57:42 22° 78° (ENE) 2,840 8.3 -16.8°
Drops below altitude 10° 18:00:38 10° 70° (ENE) 3,684 - -17.4°
Sets 18:03:45 0° 65° (ENE) 4,654 - -17.9°
